Knox, IN

9:51 PM CDT on May 22, 2017 (GMT -0500)
Starke County

Weather History for KOXI - December, 2012

Change the Weather History Date:

Saturday, December 29, 2012

  Actual Average (KRCR) Record (KRCR)
Temperature  
Mean Temperature 26 °F -  
Max Temperature 31 °F 33 °F 46 °F (2015)
Min Temperature 22 °F 17 °F 21 °F (2014)
Degree Days  
Heating Degree Days 38    
Moisture  
Dew Point 26 °F    
Average Humidity 91    
Maximum Humidity 99    
Minimum Humidity 81    
Precipitation  
Precipitation 0.00 in - - ()
Sea Level Pressure  
Sea Level Pressure 29.95 in    
Wind  
Wind Speed 6 mph (WNW)    
Max Wind Speed 17 mph    
Max Gust Speed 22 mph    
Visibility 5 miles    
Events      
Averages and records for this station are not official NWS values.
T = Trace of Precipitation, MM = Missing Value Source: NWS Daily Summary

Daily Weather History Graph

Daily Weather History Graph

Search for Another Location

Airport or City:

Trip Planner

Search our weather history database for the weather conditions in past years. The results will help you decide how hot, cold, wet, or windy it might be!

Date:

Astronomy

Dec. 29, 2012 Rise Set
Actual Time 7:12 AM CST 4:25 PM CST
Civil Twilight 6:40 AM CST 4:57 PM CST
Nautical Twilight 6:06 AM CST 5:31 PM CST
Astronomical Twilight 5:32 AM CST 6:05 PM CST
Moon 5:59 PM CST (12/29) 7:44 AM CST (12/29)
Length of Visible Light 10h 16m
Length of Day
9h 13m
Full, 98% of the Moon is Illuminated
Dec 29
Full
Jan 4
Last Quarter
Jan 11
New
Jan 18
First Quarter
Jan 26
Full

Hourly Weather History & Observations

Time (CST) Temp. Windchill Dew Point Humidity Pressure Visibility Wind Dir Wind Speed Gust Speed Precip Events Conditions
12:15 AM 28.8 °F - 26.6 °F 92% 29.85 in 5.0 mi Calm Calm - N/A   Overcast
12:35 AM 28.8 °F - 26.6 °F 92% 29.84 in 5.0 mi Calm Calm - N/A   Overcast
12:55 AM 28.8 °F - 26.6 °F 92% 29.84 in 5.0 mi Calm Calm - N/A   Overcast
1:15 AM 28.4 °F - 26.8 °F 94% 29.83 in 4.0 mi Calm Calm - N/A   Overcast
1:35 AM 28.4 °F 24.6 °F 27.0 °F 94% 29.83 in 4.0 mi North 3.5 mph - N/A   Overcast
1:55 AM 28.4 °F 24.6 °F 27.0 °F 94% 29.83 in 5.0 mi ENE 3.5 mph - N/A   Overcast
2:15 AM 28.2 °F 23.1 °F 26.4 °F 93% 29.84 in 5.0 mi North 4.6 mph - N/A   Overcast
2:35 AM 27.9 °F 24.0 °F 26.4 °F 94% 29.84 in 4.0 mi North 3.5 mph - N/A   Overcast
2:55 AM 27.5 °F 22.2 °F 26.4 °F 96% 29.84 in 3.0 mi NNW 4.6 mph - N/A   Overcast
3:15 AM 27.9 °F 24.0 °F 26.6 °F 95% 29.84 in 4.0 mi North 3.5 mph - N/A   Overcast
3:35 AM 27.9 °F 24.0 °F 26.6 °F 95% 29.84 in 4.0 mi NW 3.5 mph - N/A   Overcast
3:55 AM 27.7 °F 22.4 °F 26.8 °F 96% 29.83 in 3.0 mi NW 4.6 mph - N/A   Overcast
4:15 AM 27.9 °F 24.0 °F 27.0 °F 96% 29.84 in 3.0 mi NW 3.5 mph - N/A   Overcast
4:35 AM 28.0 °F 22.8 °F 27.1 °F 96% 29.84 in 4.0 mi NW 4.6 mph - N/A   Overcast
4:55 AM 28.2 °F 24.4 °F 27.1 °F 96% 29.84 in 3.0 mi NW 3.5 mph - N/A   Overcast
5:15 AM 28.2 °F 23.1 °F 27.1 °F 96% 29.84 in 3.0 mi NW 4.6 mph - N/A   Overcast
5:35 AM 28.4 °F 23.3 °F 27.3 °F 96% 29.84 in 3.0 mi NW 4.6 mph - N/A   Overcast
5:55 AM 28.4 °F 23.3 °F 27.3 °F 96% 29.84 in 2.5 mi NW 4.6 mph - N/A   Overcast
6:15 AM 28.2 °F 24.4 °F 27.5 °F 97% 29.85 in 1.5 mi NW 3.5 mph - N/A   Overcast
6:35 AM 28.4 °F - 27.9 °F 98% 29.85 in 1.2 mi Calm Calm - N/A   Overcast
6:55 AM 28.4 °F - 28.0 °F 99% 29.85 in 1.2 mi Calm Calm - N/A   Overcast
7:15 AM 28.6 °F - 28.4 °F 99% 29.85 in 0.8 mi Calm Calm - N/A   Overcast
7:35 AM 29.3 °F 24.3 °F 28.9 °F 99% 29.85 in 1.0 mi West 4.6 mph - N/A   Overcast
7:55 AM 29.8 °F 24.9 °F 29.3 °F 98% 29.86 in 1.0 mi West 4.6 mph - N/A   Overcast
8:15 AM 30.0 °F 24.1 °F 29.7 °F 99% 29.86 in 1.0 mi West 5.8 mph - N/A   Overcast
8:35 AM 30.2 °F 22.6 °F 30.0 °F 99% 29.86 in 1.8 mi West 8.1 mph - N/A   Overcast
8:55 AM 30.6 °F 21.8 °F 30.2 °F 99% 29.87 in 2.5 mi West 10.4 mph - N/A   Overcast
9:15 AM 30.9 °F 22.2 °F 30.0 °F 96% 29.87 in 2.5 mi West 10.4 mph - N/A   Overcast
9:35 AM 31.1 °F 21.9 °F 29.8 °F 95% 29.87 in 3.0 mi WNW 11.5 mph - N/A   Overcast
9:55 AM 31.3 °F 21.6 °F 29.8 °F 94% 29.88 in 4.0 mi WNW 12.7 mph - N/A   Overcast
10:15 AM 31.3 °F 21.6 °F 29.8 °F 94% 29.89 in 2.5 mi WNW 12.7 mph - N/A   Overcast
10:35 AM 31.1 °F 20.9 °F 29.8 °F 95% 29.89 in 4.0 mi West 13.8 mph - N/A   Overcast
10:55 AM 31.1 °F 20.9 °F 29.5 °F 94% 29.89 in 5.0 mi WNW 13.8 mph - N/A   Overcast
11:15 AM 31.1 °F 20.1 °F 29.3 °F 93% 29.89 in 5.0 mi WNW 16.1 mph - N/A   Overcast
11:35 AM 31.1 °F 21.4 °F 28.8 °F 91% 29.89 in 3.0 mi West 12.7 mph - N/A   Overcast
11:55 AM 30.7 °F 21.4 °F 28.6 °F 92% 29.89 in 3.0 mi West 11.5 mph - N/A   Overcast
12:15 PM 30.6 °F 19.4 °F 28.4 °F 92% 29.89 in 2.0 mi West 16.1 mph 19.6 mph N/A   Overcast
12:35 PM 30.2 °F 18.5 °F 27.5 °F 90% 29.90 in 2.0 mi West 17.3 mph - N/A   Overcast
12:55 PM 29.5 °F 18.4 °F 26.8 °F 90% 29.90 in 2.5 mi West 15.0 mph 21.9 mph N/A   Overcast
1:15 PM 28.9 °F 18.2 °F 26.2 °F 90% 29.91 in 4.0 mi West 13.8 mph 19.6 mph N/A   Overcast
1:35 PM 28.4 °F 18.0 °F 25.7 °F 90% 29.91 in 5.0 mi West 12.7 mph - N/A   Overcast
1:55 PM 28.4 °F 17.0 °F 25.3 °F 88% 29.93 in 4.0 mi West 15.0 mph - N/A   Overcast
2:35 PM 28.4 °F 18.5 °F 25.3 °F 88% 29.95 in 2.5 mi West 11.5 mph - N/A   Overcast
2:55 PM 28.4 °F 18.5 °F 25.3 °F 88% 29.96 in 4.0 mi West 11.5 mph 17.3 mph N/A   Overcast
3:15 PM 28.4 °F 19.7 °F 25.3 °F 88% 29.96 in 4.0 mi West 9.2 mph - N/A   Overcast
3:35 PM 28.8 °F 19.5 °F 25.0 °F 86% 29.97 in 7.0 mi West 10.4 mph - N/A   Overcast
3:55 PM 28.4 °F 19.1 °F 24.8 °F 86% 29.98 in 7.0 mi West 10.4 mph - N/A   Overcast
4:15 PM 28.4 °F 18.0 °F 24.6 °F 86% 29.99 in 5.0 mi West 12.7 mph - N/A   Overcast
4:35 PM 28.2 °F 18.3 °F 24.4 °F 86% 30.00 in 3.0 mi West 11.5 mph - N/A   Overcast
4:55 PM 27.7 °F 16.6 °F 24.4 °F 88% 30.01 in 3.0 mi West 13.8 mph - N/A   Overcast
5:15 PM 27.5 °F 17.4 °F 24.4 °F 88% 30.02 in 4.0 mi West 11.5 mph - N/A   Overcast
5:35 PM 27.5 °F 16.8 °F 23.9 °F 86% 30.03 in 7.0 mi West 12.7 mph - N/A   Overcast
5:55 PM 27.3 °F 17.1 °F 23.0 °F 84% 30.04 in 10.0 mi West 11.5 mph - N/A   Overcast
6:15 PM 27.3 °F 17.1 °F 22.6 °F 83% 30.05 in 10.0 mi West 11.5 mph - N/A   Overcast
6:35 PM 27.1 °F 16.4 °F 22.5 °F 83% 30.07 in 10.0 mi WNW 12.7 mph - N/A   Overcast
6:55 PM 27.1 °F 16.4 °F 22.3 °F 82% 30.08 in 10.0 mi West 12.7 mph - N/A   Overcast
7:15 PM 27.1 °F 18.9 °F 22.1 °F 81% 30.08 in 10.0 mi West 8.1 mph - N/A   Overcast
7:35 PM 27.1 °F 17.5 °F 22.1 °F 81% 30.10 in 10.0 mi West 10.4 mph - N/A   Overcast
7:55 PM 27.0 °F 16.7 °F 22.5 °F 83% 30.10 in 10.0 mi West 11.5 mph - N/A   Overcast
8:15 PM 26.6 °F 15.2 °F 22.3 °F 84% 30.11 in 10.0 mi West 13.8 mph - N/A   Overcast
8:35 PM 26.2 °F 15.8 °F 22.1 °F 84% 30.11 in 10.0 mi West 11.5 mph - N/A   Overcast
8:55 PM 26.1 °F 15.0 °F 22.1 °F 85% 30.13 in 10.0 mi West 12.7 mph - N/A   Overcast
9:15 PM 25.5 °F 14.9 °F 21.7 °F 86% 30.13 in 10.0 mi West 11.5 mph - N/A   Overcast
9:35 PM 25.3 °F 14.1 °F 21.2 °F 84% 30.15 in 10.0 mi West 12.7 mph - N/A   Overcast
9:55 PM 24.8 °F 12.9 °F 21.0 °F 86% 30.16 in 10.0 mi West 13.8 mph - N/A   Overcast
10:15 PM 24.6 °F 12.2 °F 20.8 °F 86% 30.17 in 10.0 mi West 15.0 mph 20.7 mph N/A   Overcast
10:35 PM 24.6 °F 13.2 °F 20.8 °F 86% 30.18 in 10.0 mi West 12.7 mph 19.6 mph N/A   Overcast
10:55 PM 24.3 °F 11.2 °F 20.5 °F 85% 30.19 in 10.0 mi West 16.1 mph - N/A   Overcast
11:15 PM 23.4 °F 10.1 °F 19.8 °F 86% 30.19 in 10.0 mi West 16.1 mph - N/A   Overcast
11:35 PM 22.8 °F 8.9 °F 19.2 °F 86% 30.20 in 10.0 mi West 17.3 mph 21.9 mph N/A   Overcast
11:55 PM 22.6 °F 9.6 °F 19.0 °F 86% 30.19 in 10.0 mi West 15.0 mph - N/A   Overcast